TimeIST,TemperatureF,Dew PointF,Humidity,Sea Level PressureIn,VisibilityMPH,Wind Direction,Wind SpeedMPH,Gust SpeedMPH,PrecipitationIn,Events,Conditions,WindDirDegrees,DateUTC
12:00 AM,69.8,68.0,94,29.56,2.2,Calm,Calm,-,N/A,,Overcast,0,2013-09-15 18:30:00
12:30 AM,69.8,68.0,94,29.56,2.2,Calm,Calm,-,N/A,,Overcast,0,2013-09-15 19:00:00
1:00 AM,69.8,68.0,94,29.56,2.2,Variable,3.5,-,N/A,,Overcast,0,2013-09-15 19:30:00
1:30 AM,68.0,68.0,100,29.56,2.2,Calm,Calm,-,N/A,,Overcast,0,2013-09-15 20:00:00
2:00 AM,69.8,69.8,100,29.56,2.2,Calm,Calm,-,N/A,,Overcast,0,2013-09-15 20:30:00
2:30 AM,69,68,96,29.55,1,NE,3.5,,,,Mist,50,2013-09-15 21:00:00
2:30 AM,69.8,68.0,94,29.56,2.2,NE,3.5,-,N/A,,Overcast,40,2013-09-15 21:00:00
3:30 AM,69.8,68.0,94,29.59,-9999.0,North,-9999.0,-,N/A,,Overcast,0,2013-09-15 22:00:00
4:00 AM,69.8,68.0,94,29.62,2.2,NNW,3.5,-,N/A,,Overcast,330,2013-09-15 22:30:00
4:30 AM,69.8,68.0,94,29.68,2.2,West,11.5,-,N/A,,Overcast,280,2013-09-15 23:00:00
5:00 AM,69.8,68.0,94,29.71,2.2,NW,11.5,-,N/A,,Overcast,310,2013-09-15 23:30:00
5:30 AM,71,69,90,29.69,1,NW,16.1,,,,Mist,320,2013-09-16 00:00:00
5:30 AM,71.6,68.0,88,29.71,1.6,NW,17.3,-,N/A,,Overcast,310,2013-09-16 00:00:00
6:00 AM,69.8,68.0,94,29.71,1.9,Variable,11.5,-,N/A,,Mostly Cloudy,0,2013-09-16 00:30:00
7:30 AM,71.6,68.0,88,29.68,2.5,East,10.4,-,N/A,,Mostly Cloudy,80,2013-09-16 02:00:00
8:00 AM,71.6,71.6,100,29.68,3.1,East,10.4,-,N/A,,Mostly Cloudy,80,2013-09-16 02:30:00
8:30 AM,72,72,100,29.76,2,West,18.4,,,Thunderstorm,Thunderstorm,270,2013-09-16 03:00:00
8:30 AM,71.6,71.6,100,29.80,3.1,West,18.4,29.9,N/A,Thunderstorm,Light Thunderstorm,280,2013-09-16 03:00:00
9:00 AM,71.6,71.6,100,29.80,3.1,South,5.8,-,N/A,,Overcast,180,2013-09-16 03:30:00
9:30 AM,69.8,69.8,100,29.83,2.5,SSW,6.9,-,N/A,Rain,Light Rain,200,2013-09-16 04:00:00
10:00 AM,69.8,69.8,100,29.80,2.5,South,6.9,-,N/A,Rain,Rain,180,2013-09-16 04:30:00
10:30 AM,71.6,64.4,78,29.74,3.1,SSE,10.4,-,N/A,,Haze,150,2013-09-16 05:00:00
11:00 AM,77.0,68.0,74,29.74,3.7,SSE,5.8,-,N/A,,Scattered Clouds,150,2013-09-16 05:30:00
11:30 AM,77.0,68.0,74,29.74,3.7,ENE,9.2,-,N/A,,Scattered Clouds,70,2013-09-16 06:00:00
12:00 PM,80.6,69.8,70,29.74,3.7,East,4.6,-,N/A,,Scattered Clouds,100,2013-09-16 06:30:00
1:00 PM,84.2,73.4,70,29.74,3.7,East,6.9,-,N/A,,Scattered Clouds,90,2013-09-16 07:30:00
1:30 PM,84.2,73.4,70,29.74,3.7,ENE,8.1,-,N/A,,Scattered Clouds,70,2013-09-16 08:00:00
2:00 PM,84.2,73.4,70,29.74,3.7,ENE,5.8,-,N/A,,Scattered Clouds,70,2013-09-16 08:30:00
2:30 PM,85,74,63,29.70,2,NE,5.8,,,,,50,2013-09-16 09:00:00
2:30 PM,84.2,73.4,70,29.71,-9999.0,ENE,5.8,-,N/A,,Clear,60,2013-09-16 09:00:00
3:00 PM,82.4,77.0,84,29.71,-9999.0,ENE,4.6,-,N/A,,Clear,70,2013-09-16 09:30:00
3:30 PM,82.4,77.0,84,29.68,-9999.0,Variable,2.3,-,N/A,,Clear,0,2013-09-16 10:00:00
4:00 PM,84.2,77.0,79,29.68,-9999.0,Variable,3.5,-,N/A,,Clear,0,2013-09-16 10:30:00
4:30 PM,84.2,77.0,79,29.68,-9999.0,Variable,3.5,-,N/A,,Clear,0,2013-09-16 11:00:00
5:00 PM,82.4,77.0,84,29.65,-9999.0,Variable,2.3,-,N/A,,Clear,0,2013-09-16 11:30:00
5:30 PM,82.4,78.8,89,29.65,-9999.0,Variable,2.3,-,N/A,,Clear,0,2013-09-16 12:00:00
6:00 PM,80.6,78.8,94,29.65,-9999.0,Variable,3.5,-,N/A,,Clear,0,2013-09-16 12:30:00
6:30 PM,78.8,73.4,83,29.65,3.7,Variable,1.2,-,N/A,,Unknown,0,2013-09-16 13:00:00
7:00 PM,77.0,73.4,89,29.65,3.1,Calm,Calm,-,N/A,,Haze,0,2013-09-16 13:30:00
7:30 PM,77.0,73.4,89,29.65,3.1,Calm,Calm,-,N/A,,Haze,0,2013-09-16 14:00:00
8:00 PM,75.2,73.4,94,29.65,3.1,Calm,Calm,-,N/A,,Mist,0,2013-09-16 14:30:00
8:30 PM,74,72,93,29.64,2,Calm,Calm,,,,Mist,,2013-09-16 15:00:00
8:30 PM,75.2,71.6,89,29.65,3.1,Variable,1.2,-,N/A,,Mist,0,2013-09-16 15:00:00
9:00 PM,75.2,71.6,89,29.68,3.1,Calm,Calm,-,N/A,,Mist,0,2013-09-16 15:30:00
9:30 PM,73.4,71.6,94,29.68,3.1,Calm,Calm,-,N/A,,Mist,0,2013-09-16 16:00:00
10:00 PM,73.4,71.6,94,29.68,2.8,Calm,Calm,-,N/A,,Mist,0,2013-09-16 16:30:00
10:30 PM,73.4,71.6,94,29.68,2.8,Calm,Calm,-,N/A,,Mist,0,2013-09-16 17:00:00
11:00 PM,71.6,71.6,100,29.68,2.8,Calm,Calm,-,N/A,,Mist,0,2013-09-16 17:30:00
11:30 PM,72,70,93,29.64,2,Calm,Calm,,,,Mist,,2013-09-16 18:00:00
11:30 PM,73.4,69.8,88,29.65,2.8,Calm,Calm,-,N/A,,Mist,0,2013-09-16 18:00:00